Cheyenne, WY

5:10 AM MST on February 11, 2016 (GMT -0700)
Cheyenne F E Warren

Weather History for KFEW - December, 2013

Change the Weather History Date:

Saturday, December 14, 2013

  Actual Average (KCYS) Record (KCYS)
Temperature  
Mean Temperature 30 °F 27 °F  
Max Temperature 39 °F 38 °F 61 °F (1969)
Min Temperature 22 °F 17 °F -22 °F (1901)
Degree Days  
Heating Degree Days 34 38  
Month to date heating degree days 520  
Since 1 July heating degree days 2268  
Cooling Degree Days 0 0  
Month to date cooling degree days 0  
Year to date cooling degree days 348  
Moisture  
Dew Point 15 °F    
Average Humidity 52    
Maximum Humidity 79    
Minimum Humidity 32    
Precipitation  
Precipitation 0.00 in 0.02 in 0.44 in (1902)
Month to date precipitation 0.24  
Year to date precipitation 15.69  
Snow  
Snow 0.00 in 0.30 in 5.00 in (1937)
Month to date snowfall 4.0  
Since 1 July snowfall 18.3  
Snow Depth -    
Sea Level Pressure  
Sea Level Pressure 30.27 in    
Wind  
Wind Speed 15 mph (WNW)    
Max Wind Speed 54 mph    
Max Gust Speed 86 mph    
Visibility 12 miles    
Events      
T = Trace of Precipitation, MM = Missing Value Source: NWS Daily Summary

Daily Weather History Graph

Daily Weather History Graph

Search for Another Location

Airport or City:

Trip Planner

Search our weather history database for the weather conditions in past years. The results will help you decide how hot, cold, wet, or windy it might be!

Date:

Astronomy

Dec. 14, 2013 Rise Set
Actual Time 7:17 AM MST 4:31 PM MST
Civil Twilight 6:46 AM MST 5:02 PM MST
Nautical Twilight 6:11 AM MST 5:37 PM MST
Astronomical Twilight 5:37 AM MST 6:10 PM MST
Moon 2:55 PM MST (12/14) 4:39 AM MST (12/14)
Length of Visible Light 10h 16m
Length of Day
9h 14m
Waxing Gibbous, 94% of the Moon is Illuminated
Dec 14
Waxing Gibbous
Dec 17
Full
Dec 25
Last Quarter
Jan 1
New
Jan 7
First Quarter

Hourly Weather History & Observations

Time (MST) Temp. Windchill Dew Point Humidity Pressure Visibility Wind Dir Wind Speed Gust Speed Precip Events Conditions
12:56 AM 22.3 °F 11.5 °F 16.5 °F 79% 30.24 in 12.0 mi NNW 10.4 mph - N/A   Mostly Cloudy
1:56 AM 25.9 °F 14.8 °F 17.1 °F 69% 30.25 in 12.0 mi NW 12.7 mph - N/A   Mostly Cloudy
2:56 AM 25.2 °F 12.9 °F 16.3 °F 69% 30.26 in 12.0 mi NW 15.0 mph - N/A   Mostly Cloudy
3:56 AM 25.7 °F 15.7 °F 15.6 °F 66% 30.29 in 12.0 mi WNW 10.4 mph - N/A   Mostly Cloudy
4:56 AM 25.7 °F 15.7 °F 15.6 °F 66% 30.30 in 12.0 mi WNW 10.4 mph - N/A   Mostly Cloudy
5:56 AM 25.0 °F 17.1 °F 15.8 °F 68% 30.33 in 12.0 mi West 6.9 mph - N/A   Overcast
6:56 AM 26.8 °F 16.5 °F 15.1 °F 61% 30.33 in 12.0 mi West 11.5 mph - N/A   Overcast
7:56 AM 22.8 °F 10.9 °F 14.2 °F 69% 30.36 in 12.0 mi WNW 12.7 mph 17.3 mph N/A   Partly Cloudy
8:56 AM 27.9 °F 15.9 °F 14.2 °F 57% 30.34 in 12.0 mi WNW 16.1 mph - N/A   Clear
9:56 AM 33.3 °F 23.7 °F 13.5 °F 44% 30.32 in 12.0 mi WNW 13.8 mph - N/A   Clear
10:56 AM 36.0 °F 28.0 °F 12.2 °F 38% 30.32 in 12.0 mi West 11.5 mph - N/A   Clear
11:56 AM 37.4 °F 26.4 °F 11.5 °F 34% 30.29 in 12.0 mi West 23.0 mph 29.9 mph N/A   Clear
12:56 PM 39.0 °F 27.2 °F 11.5 °F 32% 30.25 in 12.0 mi WNW 29.9 mph 34.5 mph N/A   Clear
1:56 PM 38.5 °F 28.1 °F 13.1 °F 35% 30.25 in 12.0 mi West 21.9 mph 33.4 mph N/A   Clear
2:56 PM 38.1 °F 27.6 °F 13.3 °F 36% 30.25 in 12.0 mi WNW 21.9 mph 29.9 mph N/A   Clear
3:56 PM 36.0 °F 25.3 °F 13.3 °F 39% 30.26 in 12.0 mi West 19.6 mph 24.2 mph N/A   Clear
4:56 PM 30.2 °F 21.3 °F 14.5 °F 52% 30.29 in 12.0 mi WSW 10.4 mph - N/A   Partly Cloudy
5:56 PM 31.8 °F 20.2 °F 14.5 °F 49% 30.28 in 12.0 mi WNW 18.4 mph - N/A   Mostly Cloudy
6:56 PM 31.5 °F 26.8 °F 14.2 °F 49% 30.27 in 12.0 mi SSW 4.6 mph 19.6 mph N/A   Mostly Cloudy
7:56 PM 30.9 °F 21.2 °F 14.7 °F 51% 30.31 in 12.0 mi NW 12.7 mph - N/A   Clear
8:56 PM 31.5 °F 18.8 °F 15.1 °F 51% 30.25 in 12.0 mi NW 21.9 mph - N/A   Clear
9:56 PM 33.3 °F 28.9 °F 15.3 °F 48% 30.20 in 12.0 mi Variable 4.6 mph 25.3 mph N/A   Scattered Clouds
10:26 PM 33.8 °F 16.4 °F 15.8 °F 48% 30.13 in 12.0 mi WSW 54.1 mph 86.3 mph N/A   Squalls
10:56 PM 33.4 °F 24.8 °F 15.6 °F 48% 30.17 in 12.0 mi WNW 11.5 mph 23.0 mph N/A   Clear
11:56 PM 33.8 °F 19.9 °F 15.1 °F 46% 30.17 in 12.0 mi WNW 31.1 mph 40.3 mph N/A   Scattered Clouds